EW0915 Weather Reports


time (UTC)temp
C
wind
direction
speed
KPH
gust
KPH
rain 1hr
cm
rain 24hr
cm
rain mn
cm
humidity
%
barometer
mb
20260506073016 6 0.0 3.2 0.00 0.00 0.00 71 1022.4
20260506072016 6 0.0 1.6 0.00 0.00 0.00 72 1022.4
20260506071018 6 0.0 1.6 0.00 0.00 0.00 74 1022.5
20260506062038 5 0.0 1.6 0.00 0.00 0.00 76 1022.1
20260506061018 5 0.0 1.6 0.00 0.00 0.00 76 1022.1
20260506051037 5 0.0 1.6 0.00 0.00 0.00 76 1022.2
20260506045016 5 0.0 1.6 0.00 0.00 0.00 75 1022.1
20260506044016 5 0.0 1.6 0.00 0.00 0.00 75 1022.1
20260506043016 5 0.0 1.6 0.00 0.00 0.00 75 1022.0
20260506042036 5 0.0 1.6 0.00 0.00 0.00 74 1022.0
20260506041016 5 0.0 1.6 0.00 0.00 0.00 74 1022.1
20260506040037 5 0.0 1.6 0.00 0.00 0.00 75 1022.1
20260506035016 5 0.0 1.6 0.00 0.00 0.00 74 1022.1
20260506034059 5 0.0 0.0 0.00 0.00 0.00 74 1022.2
20260506033016 5 0.0 1.6 0.00 0.00 0.00 73 1022.2
20260506032016 5 0.0 1.6 0.00 0.00 0.00 73 1022.3
20260506031038 5 0.0 1.6 0.00 0.00 0.00 73 1022.3
20260506030037 6 0.0 1.6 0.00 0.00 0.00 72 1022.4
20260506025017 6 0.0 1.6 0.00 0.00 0.00 72 1022.5
20260506024057 6 0.0 1.6 0.00 0.00 0.00 71 1022.5
20260506023017 6 0.0 1.6 0.00 0.00 0.00 72 1022.5
20260506022016 6 0.0 1.6 0.00 0.00 0.00 72 1022.5
20260506021016 6 0.0 0.0 0.00 0.00 0.00 71 1022.6
20260506020016 6 0.0 1.6 0.00 0.00 0.00 71 1022.5
20260506015037 6 0.0 1.6 0.00 0.00 0.00 71 1022.6
20260506014016 6 0.0 1.6 0.00 0.00 0.00 71 1022.8
20260506013016 6 0.0 1.6 0.00 0.00 0.00 71 1022.7
20260506012015 6 0.0 4.8 0.00 0.00 0.00 70 1022.9
20260506011036 6 0.0 0.0 0.00 0.00 0.00 70 1022.8
20260506010017 6 0.0 4.8 0.00 0.00 0.00 70 1022.9
20260506005015 6 0.0 3.2 0.00 0.00 0.00 70 1022.9
20260506004017 6 0.0 3.2 0.00 0.00 0.00 70 1022.8
20260506003036 6 0.0 3.2 0.00 0.00 0.00 70 1023.0
20260506002015 6 0.0 3.2 0.00 0.00 0.00 70 1022.9
20260506001015 6 0.0 3.2 0.00 0.00 0.00 70 1022.7
20260506000015 7 0.0 4.8 0.00 0.00 0.00 70 1022.8
20260505235036 7 0.0 3.2 0.00 0.00 0.00 69 1022.8
20260505234017 7 0.0 3.2 0.00 0.00 0.00 69 1022.8
20260505233015 7 0.0 1.6 0.00 0.00 0.00 69 1022.9
20260505232016 7 0.0 3.2 0.00 0.00 0.00 68 1022.9
20260505231017 7 0 1.6 6.4 0.00 0.00 0.00 68 1023.0
20260505230016 7 0.0 1.6 0.00 0.00 0.00 68 1023.0
20260505225017 7 0.0 6.4 0.00 0.00 0.00 68 1023.0
20260505224016 7 0.0 8.0 0.00 0.00 0.00 68 1023.1
20260505223016 7 23 1.6 6.4 0.00 0.00 0.00 68 1023.1
20260505222015 7 0 1.6 9.7 0.00 0.00 0.00 67 1023.1
20260505221015 7 23 1.6 8.0 0.00 0.00 0.00 67 1023.1
20260505220015 7 338 1.6 6.4 0.00 0.00 0.00 67 1023.1
20260505215016 7 338 1.6 8.0 0.00 0.00 0.00 67 1023.0
20260505214017 7 0 1.6 11.3 0.00 0.00 0.00 67 1022.9
20260505213017 7 0.0 4.8 0.00 0.00 0.00 66 1023.0
20260505212015 7 0 1.6 11.3 0.00 0.00 0.00 66 1022.8
20260505211017 7 0 1.6 9.7 0.00 0.00 0.00 66 1022.8
20260505210019 7 0 3.2 12.9 0.00 0.00 0.00 65 1022.9
20260505205059 7 0 1.6 8.0 0.00 0.00 0.00 66 1022.8
20260505204019 7 0 1.6 9.7 0.00 0.00 0.00 65 1022.7
20260505203017 7 0 3.2 11.3 0.00 0.00 0.00 65 1022.7
20260505202015 7 0 3.2 11.3 0.00 0.00 0.00 65 1022.7
20260505201017 8 0 3.2 11.3 0.00 0.00 0.00 65 1022.7
20260505200019 8 0 6.4 19.3 0.00 0.00 0.00 65 1022.7
20260505195017 8 0 3.2 9.7 0.00 0.00 0.00 65 1022.7
20260505194017 8 0 4.8 17.7 0.00 0.00 0.00 66 1022.7
20260505193017 8 0 3.2 17.7 0.00 0.00 0.00 66 1022.6
20260505192017 8 0 3.2 12.9 0.00 0.00 0.00 66 1022.5
20260505191040 8 0 4.8 16.1 0.00 0.00 0.00 66 1022.3
20260505190017 8 0 3.2 12.9 0.00 0.00 0.00 66 1022.3
20260505185039 8 0 4.8 20.9 0.00 0.00 0.00 65 1022.2
20260505184018 9 0 3.2 9.7 0.00 0.00 0.00 64 1022.0
20260505183019 9 0 4.8 14.5 0.00 0.00 0.00 65 1022.0
20260505182017 9 23 4.8 16.1 0.00 0.00 0.00 64 1021.9
20260505181017 9 0 4.8 17.7 0.00 0.00 0.00 64 1021.9
20260505180019 9 23 4.8 17.7 0.00 0.00 0.00 65 1022.1
20260505175018 10 23 6.4 19.3 0.00 0.00 0.00 64 1021.9
20260505174019 10 0 6.4 25.7 0.00 0.00 0.00 64 1022.0
20260505173017 10 23 4.8 20.9 0.00 0.00 0.00 63 1022.1
20260505172017 10 0 6.4 16.1 0.00 0.00 0.00 62 1022.0
20260505171017 10 0 6.4 17.7 0.00 0.00 0.00 63 1022.0
20260505170037 10 0 4.8 16.1 0.00 0.00 0.00 65 1021.9
20260505165017 10 23 3.2 11.3 0.00 0.00 0.00 66 1021.9
20260505164017 11 0 3.2 11.3 0.00 0.00 0.00 65 1021.8
20260505163017 11 23 3.2 19.3 0.00 0.00 0.00 64 1021.9
20260505162017 11 0 3.2 14.5 0.00 0.00 0.00 63 1021.7
20260505161017 11 0 6.4 19.3 0.00 0.00 0.00 64 1021.8
20260505153017 11 0 4.8 17.7 0.00 0.00 0.00 62 1021.8
20260505152040 11 0 6.4 19.3 0.00 0.00 0.00 63 1021.7
20260505151018 11 0 4.8 14.5 0.00 0.00 0.00 61 1021.7
20260505125016 13 23 3.2 16.1 0.00 0.00 0.00 44 1020.7
20260505124038 13 113 1.6 6.4 0.00 0.00 0.00 47 1020.6
20260505123018 12 0 1.6 6.4 0.00 0.00 0.00 50 1020.6
20260505122016 12 0 1.6 6.4 0.00 0.00 0.00 51 1020.7
20260505121016 12 0 1.6 6.4 0.00 0.00 0.00 51 1020.8
20260505120016 12 23 3.2 11.3 0.00 0.00 0.00 50 1020.9
20260505115018 12 23 1.6 12.9 0.00 0.00 0.00 52 1020.9
20260505114017 12 23 3.2 12.9 0.00 0.00 0.00 52 1020.9
20260505113018 12 23 1.6 8.0 0.00 0.00 0.00 54 1021.0
20260505112016 12 23 1.6 8.0 0.00 0.00 0.00 55 1021.1
20260505111036 11 0 1.6 12.9 0.00 0.00 0.00 57 1021.0
20260505102016 11 23 1.6 11.3 0.00 0.00 0.00 57 1020.9
20260505101016 11 0 1.6 11.3 0.00 0.00 0.00 57 1021.0
20260505100018 11 0 1.6 11.3 0.00 0.00 0.00 59 1021.0
20260505095036 11 0.0 8.0 0.00 0.00 0.00 60 1020.8
20260505094016 11 0 1.6 6.4 0.00 0.00 0.00 60 1020.8
20260505093016 11 225 1.6 8.0 0.00 0.00 0.00 61 1020.7
20260505092016 11 225 1.6 6.4 0.00 0.00 0.00 61 1020.7
20260505091016 11 248 1.6 4.8 0.00 0.00 0.00 62 1020.7
20260505090016 11 225 1.6 9.7 0.00 0.00 0.00 64 1020.8
20260505085038 10 225 1.6 8.0 0.00 0.00 0.00 66 1020.9
20260505084016 10 248 1.6 8.0 0.00 0.00 0.00 66 1020.8
20260505083017 10 248 1.6 4.8 0.00 0.00 0.00 68 1020.8
20260505082017 10 248 1.6 8.0 0.00 0.00 0.00 70 1020.8
20260505081018 10 0.0 3.2 0.00 0.00 0.00 71 1020.8
20260505080016 10 248 1.6 8.0 0.00 0.00 0.00 72 1020.7
20260505075016 10 248 1.6 8.0 0.00 0.00 0.00 73 1020.7
20260505074018 9 248 1.6 6.4 0.00 0.00 0.00 75 1020.5